Weather History for Mineral Point, WI

Change the Weather History Date:

Tuesday, February 5, 2013

  Actual Average (KLNR) Record (KLNR)
Temperature  
Mean Temperature 21 °F -  
Max Temperature 32 °F 29 °F 46 °F (2005)
Min Temperature 10 °F 13 °F -24 °F (2007)
Degree Days  
Heating Degree Days 44    
Moisture  
Dew Point 18 °F    
Average Humidity 78    
Maximum Humidity 86    
Minimum Humidity 64    
Precipitation  
Precipitation 0.00 in - - ()
Sea Level Pressure  
Sea Level Pressure 29.85 in    
Wind  
Wind Speed 8 mph (WSW)    
Max Wind Speed 14 mph    
Max Gust Speed 18 mph    
Visibility 8 miles    
Events Snow    
Averages and records for this station are not official NWS values.
T = Trace of Precipitation, MM = Missing Value Source: NWS Daily Summary

Daily Weather History Graph

Daily Weather History Graph

Search for Another Location

Airport:

Trip Planner

Search our weather history database for the weather conditions in past years. The results will help you decide how hot, cold, wet, or windy it might be!

Date:

Astronomy

Feb. 05, 2013 Rise Set
Actual Time 7:10 AM CST 5:19 PM CST
Civil Twilight 6:41 AM CST 5:49 PM CST
Nautical Twilight 6:07 AM CST 6:22 PM CST
Astronomical Twilight 5:34 AM CST 6:56 PM CST
Moon 2:55 AM CST (2/5) 12:34 PM CST (2/5)
Length of Visible Light 11h 08m
Length of Day
10h 08m
Waning Crescent, 26% of the Moon is Illuminated
Feb 5
Waning Crescent
Feb 10
New
Feb 17
First Quarter
Feb 25
Full
Mar 4
Last Quarter

Hourly Weather History & Observations

Time (CST) Temp. Windchill Dew Point Humidity Pressure Visibility Wind Dir Wind Speed Gust Speed Precip Events Conditions
12:15 AM 10.4 °F 2.2 °F 5.0 °F 79% 29.88 in 10.0 mi SSE 4.6 mph - N/A   Scattered Clouds
12:35 AM 10.4 °F 0.8 °F 6.8 °F 85% 29.87 in 10.0 mi SSE 5.8 mph - N/A   Scattered Clouds
12:55 AM 10.4 °F 0.8 °F 5.0 °F 79% 29.87 in 10.0 mi South 5.8 mph - N/A   Clear
1:15 AM 10.4 °F 0.8 °F 5.0 °F 79% 29.86 in 10.0 mi South 5.8 mph - N/A   Clear
1:35 AM 10.4 °F -0.4 °F 5.0 °F 79% 29.85 in 10.0 mi South 6.9 mph - N/A   Clear
1:55 AM 10.4 °F -1.5 °F 5.0 °F 79% 29.85 in 10.0 mi South 8.1 mph - N/A   Clear
2:15 AM 12.2 °F 2.9 °F 8.6 °F 85% 29.85 in 10.0 mi South 5.8 mph - N/A   Scattered Clouds
2:35 AM 12.2 °F 2.9 °F 8.6 °F 85% 29.85 in 10.0 mi SSW 5.8 mph - N/A   Overcast
2:55 AM 14.0 °F 2.9 °F 8.6 °F 79% 29.84 in 10.0 mi SSW 8.1 mph - N/A   Overcast
3:15 AM 14.0 °F 5.1 °F 8.6 °F 79% 29.83 in 10.0 mi South 5.8 mph - N/A   Overcast
3:55 AM 14.0 °F 2.9 °F 10.4 °F 86% 29.80 in 3.0 mi South 8.1 mph - N/A Snow Light Snow
4:15 AM 14.0 °F 0.5 °F 10.4 °F 86% 29.79 in 3.0 mi South 11.5 mph - N/A Snow Light Snow
4:35 AM 14.0 °F 2.0 °F 10.4 °F 86% 29.80 in 4.0 mi South 9.2 mph - N/A Snow Light Snow
4:55 AM 15.8 °F 2.1 °F 12.2 °F 86% 29.80 in 2.5 mi SSW 12.7 mph - N/A Snow Light Snow
5:15 AM 17.6 °F 5.0 °F 12.2 °F 79% 29.78 in 3.0 mi South 11.5 mph - N/A Snow Light Snow
6:15 AM 17.6 °F 5.7 °F 14.0 °F 86% 29.76 in 10.0 mi South 10.4 mph - N/A   Overcast
6:35 AM 17.6 °F 5.0 °F 14.0 °F 86% 29.77 in 7.0 mi South 11.5 mph - N/A   Overcast
6:55 AM 17.6 °F 7.3 °F 14.0 °F 86% 29.77 in 7.0 mi South 8.1 mph - N/A   Overcast
7:15 AM 17.6 °F 6.4 °F 14.0 °F 86% 29.76 in 7.0 mi South 9.2 mph - N/A   Overcast
7:35 AM 19.4 °F 7.2 °F 14.0 °F 80% 29.74 in 7.0 mi SSW 11.5 mph - N/A   Overcast
7:55 AM 19.4 °F 9.5 °F 15.8 °F 86% 29.76 in 7.0 mi SSW 8.1 mph - N/A   Overcast
8:15 AM 19.4 °F 8.6 °F 15.8 °F 86% 29.76 in 7.0 mi SSW 9.2 mph - N/A   Overcast
8:35 AM 21.2 °F 10.9 °F 17.6 °F 86% 29.75 in 7.0 mi SSW 9.2 mph - N/A   Overcast
8:55 AM 21.2 °F 11.7 °F 17.6 °F 86% 29.75 in 7.0 mi SSW 8.1 mph - N/A   Overcast
9:15 AM 21.2 °F 10.9 °F 17.6 °F 86% 29.75 in 7.0 mi SSW 9.2 mph - N/A   Overcast
9:35 AM 23.0 °F 13.9 °F 17.6 °F 80% 29.74 in 7.0 mi SSW 8.1 mph - N/A   Overcast
9:55 AM 23.0 °F 13.1 °F 19.4 °F 86% 29.74 in 3.0 mi SW 9.2 mph - N/A Snow Light Snow
10:15 AM 24.8 °F 14.6 °F 19.4 °F 80% 29.75 in 1.0 mi SW 10.4 mph - N/A Snow Light Snow
10:35 AM 24.8 °F 15.3 °F 21.2 °F 86% 29.76 in 0.8 mi WSW 9.2 mph - N/A Snow Snow
10:55 AM 24.8 °F 15.3 °F 21.2 °F 86% 29.76 in 0.2 mi SW 9.2 mph - N/A Snow Snow
11:15 AM 26.6 °F 17.5 °F 21.2 °F 80% 29.76 in 1.5 mi WSW 9.2 mph - N/A Snow Light Snow
11:35 AM 26.6 °F 17.5 °F 21.2 °F 80% 29.76 in 1.5 mi WSW 9.2 mph - N/A Snow Light Snow
11:55 AM 28.4 °F 17.5 °F 23.0 °F 80% 29.75 in 5.0 mi WSW 13.8 mph 18.4 mph N/A Snow Light Snow
12:15 PM 28.4 °F 18.5 °F 23.0 °F 80% 29.75 in 4.0 mi West 11.5 mph - N/A Snow Light Snow
12:35 PM 28.4 °F 18.5 °F 23.0 °F 80% 29.76 in 5.0 mi West 11.5 mph - N/A   Haze
12:55 PM 30.2 °F 20.2 °F 23.0 °F 75% 29.77 in 7.0 mi West 12.7 mph - N/A   Overcast
1:15 PM 30.2 °F 20.8 °F 23.0 °F 75% 29.77 in 10.0 mi West 11.5 mph - N/A   Overcast
1:35 PM 30.2 °F 21.9 °F 24.8 °F 80% 29.77 in 7.0 mi West 9.2 mph - N/A   Overcast
1:55 PM 32.0 °F 23.6 °F 24.8 °F 75% 29.78 in 10.0 mi West 10.4 mph - N/A   Overcast
2:15 PM 32.0 °F 24.8 °F 24.8 °F 75% 29.79 in 10.0 mi NW 8.1 mph - N/A   Overcast
2:35 PM 32.0 °F 24.2 °F 24.8 °F 75% 29.80 in 10.0 mi WNW 9.2 mph - N/A   Overcast
2:55 PM 32.0 °F 24.2 °F 24.8 °F 75% 29.81 in 10.0 mi West 9.2 mph - N/A   Overcast
3:15 PM 32.0 °F 24.8 °F 26.6 °F 80% 29.83 in 10.0 mi NW 8.1 mph - N/A   Overcast
3:35 PM 32.0 °F 22.5 °F 26.6 °F 80% 29.83 in 10.0 mi WNW 12.7 mph - N/A   Overcast
3:55 PM 32.0 °F 24.8 °F 26.6 °F 80% 29.85 in 10.0 mi WNW 8.1 mph - N/A   Overcast
4:15 PM 32.0 °F 25.6 °F 26.6 °F 80% 29.85 in 10.0 mi WNW 6.9 mph - N/A   Overcast
4:35 PM 32.0 °F 23.6 °F 26.6 °F 80% 29.87 in 10.0 mi WNW 10.4 mph - N/A   Overcast
4:55 PM 32.0 °F 24.2 °F 24.8 °F 75% 29.88 in 10.0 mi WNW 9.2 mph - N/A   Overcast
5:15 PM 32.0 °F 23.6 °F 24.8 °F 75% 29.89 in 10.0 mi NW 10.4 mph - N/A   Overcast
5:35 PM 32.0 °F 25.6 °F 24.8 °F 75% 29.90 in 10.0 mi NW 6.9 mph - N/A   Overcast
5:55 PM 32.0 °F 25.6 °F 24.8 °F 75% 29.92 in 10.0 mi NW 6.9 mph - N/A   Overcast
6:15 PM 32.0 °F 23.0 °F 23.0 °F 69% 29.93 in 10.0 mi NW 11.5 mph 16.1 mph N/A   Overcast
6:35 PM 32.0 °F 24.2 °F 21.2 °F 64% 29.94 in 10.0 mi NW 9.2 mph - N/A   Overcast
6:55 PM 32.0 °F 24.8 °F 21.2 °F 64% 29.95 in 10.0 mi NW 8.1 mph - N/A   Overcast
7:15 PM 30.2 °F 21.3 °F 21.2 °F 69% 29.96 in 10.0 mi NW 10.4 mph - N/A   Overcast
7:35 PM 30.2 °F 21.3 °F 21.2 °F 69% 29.97 in 10.0 mi NNW 10.4 mph 16.1 mph N/A   Overcast
7:55 PM 30.2 °F 23.4 °F 19.4 °F 64% 29.97 in 10.0 mi NW 6.9 mph - N/A   Overcast
8:15 PM 30.2 °F 21.9 °F 19.4 °F 64% 29.97 in 10.0 mi NNW 9.2 mph - N/A   Overcast
8:35 PM 30.2 °F 24.3 °F 21.2 °F 69% 29.98 in 10.0 mi NNW 5.8 mph - N/A   Overcast
8:55 PM 28.4 °F 21.2 °F 19.4 °F 69% 30.00 in 10.0 mi NNW 6.9 mph - N/A   Overcast
9:15 PM 28.4 °F 20.4 °F 19.4 °F 69% 30.00 in 10.0 mi NNW 8.1 mph - N/A   Overcast
9:35 PM 28.4 °F 22.2 °F 19.4 °F 69% 30.01 in 10.0 mi NW 5.8 mph - N/A   Overcast
9:55 PM 28.4 °F 23.3 °F 19.4 °F 69% 30.02 in 10.0 mi NW 4.6 mph - N/A   Overcast
10:15 PM 28.4 °F 23.3 °F 19.4 °F 69% 30.03 in 10.0 mi NW 4.6 mph - N/A   Overcast
10:35 PM 26.6 °F 21.2 °F 17.6 °F 69% 30.02 in 10.0 mi North 4.6 mph - N/A   Overcast
10:55 PM 24.8 °F 17.9 °F 17.6 °F 74% 30.03 in 10.0 mi North 5.8 mph - N/A   Overcast
11:15 PM 24.8 °F 17.9 °F 17.6 °F 74% 30.04 in 10.0 mi North 5.8 mph - N/A   Mostly Cloudy
11:35 PM 24.8 °F 17.9 °F 17.6 °F 74% 30.06 in 10.0 mi North 5.8 mph - N/A   Scattered Clouds